Regional Weather Roundup
Issued by NWS

Home | Current Version | Previous Version | Graphics & Text | Print | Product List | Glossary On
Versions: 1 2 3 4 5 6 7 8 9 10 11 12 13 14 15 16 17 18 19 20 21 22 23 24 25 26 27
000
ASUS45 KSLC 230410
RWRUT

UTAH REGIONAL WEATHER ROUNDUP
NATIONAL WEATHER SERVICE SALT LAKE CITY UT
900 PM MST THU FEB 22 2018

UTZ001>011-023>025-230500-

NORTHERN UTAH

CITY           SKY/WX    TMP DP  RH WIND       PRES   REMARKS
BRIGHAM CITY   CLOUDY    28  24  85 CALM      29.99S
HILL AFB       FLURRIES  27  19  73 E5        29.94S WCI  22
LOGAN          CLOUDY    20  14  77 CALM      29.98S
OGDEN          CLOUDY    30  18  60 SE6       29.95R WCI  24
SALT LAKE CITY CLOUDY    33  23  66 SW6       29.95S WCI  28
TOOELE VALLEY  CLOUDY    30  25  80 SW14      29.95S WCI  20
WENDOVER       CLOUDY    24  22  91 W5        29.97S WCI  18
HEBER CITY     FLURRIES  23  19  86 CALM      29.92S
WEST JORDAN    CLOUDY    27  24  89 SW8       29.95F WCI  18

$$

UTZ011>015-024>027-230500-

CENTRAL/NORTHEAST UTAH

CITY           SKY/WX    TMP DP  RH WIND       PRES   REMARKS
PROVO AIRPORT  CLOUDY    29  22  75 CALM      29.97S
MOAB/CANYONLAN CLOUDY    33  10  38 CALM      29.95S
DELTA          MOCLDY    25  19  80 CALM      29.93S
PRICE          CLOUDY    24  23  96 E6        29.93S WCI  17
RICHFIELD      MOCLDY    27  25  93 CALM      29.95S
VERNAL         CLOUDY    22  20  92 NW3       29.99R

$$

UTZ013>016-019>022-027-230500-

SOUTHERN UTAH

CITY           SKY/WX    TMP DP  RH WIND       PRES   REMARKS
BRYCE CANYON   LGT SNOW  18  16  92 SE7       29.91R FOG     WCI   9
CEDAR CITY     LGT SNOW  24  24 100 SE6       29.91S FOG     WCI  17
MILFORD        PTCLDY    25  17  72 S15       29.92S WCI  13
ST GEORGE      CLOUDY    38  32  79 S9        30.01R WCI  31
HANKSVILLE     MOCLDY    34  14  44 W6        29.98S WCI  29
KANAB          CLOUDY    34  18  51 SW12G18   30.01R WCI  25
BLANDING         N/A     26   7  44 NW3       30.04R

$$

REGIONAL REPORTS     COLORADO/ARIZONA

CITY           SKY/WX    TMP DP  RH WIND       PRES   REMARKS
CRAIG, CO      LGT SNOW  22  18  85 NE5       29.98S VSB 1   WCI  16
GRAND JUNCTION MOCLDY    27  26  96 N7        30.00R WCI  19
RIFLE, CO      LGT SNOW  26  25  96 CALM      30.00R FOG
MONTROSE, CO   CLOUDY    30  17  58 N7        29.99F WCI  23
CORTEZ, CO     CLOUDY    25  12  58 CALM      29.99S
COLORADO CITY  LGT SNOW  32  30  93 CALM      30.00F
PAGE, AZ       PTCLDY    41  10  28 SW12G17   29.96S
GRAND CANYON   MOCLDY    26  12  55 SW9       29.99R WCI  17
KINGMAN, AZ    CLEAR     43  23  45 S16       30.01R
FLAGSTAFF, AZ  FLURRIES  26  17  68 SW25G36   30.02R WCI  11

$$

REGIONAL REPORTS    NEVADA/IDAHO/WYOMING

CITY           SKY/WX    TMP DP  RH WIND       PRES   REMARKS
LAS VEGAS, NV  PTCLDY    50  11  20 SW12G20   29.93R
ELY, NY        CLOUDY    15  12  88 S3        29.87S
ELKO, NV       MOCLDY    19  14  81 CALM      29.91R
POCATELLO, ID  LGT SNOW  24  20  84 SW14      29.99R FOG     WCI  12
BURLEY, ID     MOCLDY    18  15  88 CALM      29.99R
FORT BRIDGER,    N/A      7   3  85 CALM      29.95
EVANSTON, WY   MOCLDY    10   5  80 E8        29.88F WCI  -2
ROCK SPRINGS,  MOCLDY    10   4  76 SW7       29.93R WCI  -1

$$




USA.gov is the U.S. government's official web portal to all federal, state and local government web resources and services.